STARLINK-35190, 65663

Orbit data source: Space-Track

STARLINK-35190, 65663 is a payload satellite owned by SpaceX/Seattle (US) in SSO that was launched on Fri, 19 Sep 2025 UTC via an FALCON 9 launch vehicle from the Air Force Western Test Range (AFWTR). Payload-class satellites include a variety of spacecraft equipped with specific instruments for various scientific and technological missions. These include communications satellites like Starlink; space stations such as the ISS; scientific satellites like the Hubble; Earth observation satellites from companies like Planet Labs, Umbra, and HawkEye 360; GPS; miniature CubeSats for education and research; and military/defense satellites.

Loading next visibility...
Identifier
65663, 2025-211M
Orbit
SSO
Country
Flag of USUS
Related business
Manufacturer
SpaceX/Seattle
Mission
Operational Commercial Communications
Bus & Motor
STARLINK V2MO, Unknown motor
Mass
575 kg wet, ~530 kg dry
Launch date (UTC)
2025-09-19 (9 months ago)
Launch vehicle
FALCON 9
Launch site
Air Force Western Test Range (AFWTR)
Object type
Payload
Rocket body
Debris
Shape & HBR
Box + 2 Pan, 17.7 m
Radar Cross Section
36.964 m², Large (>1 m²)

Expand to show TLE details & history
Last TLE update: 13 hours ago

TLE from 13 hours ago
0 STARLINK-35190
1 65663U 25211M   26171.37272494  .00000967  00000-0  70913-4 0  9998
2 65663  97.3367 214.2047 0002150  91.4074 268.7400 15.05662376 42493
Epoch: 2026-06-20T08:56Z
TLE epoch observation values (Epoch: 2026-06-20T08:56:43.434Z)
Latitude
-0.00003°
Longitude
171.43544°
Altitude
552.579 km
Speed
7.585 km/s
True Right ascension
14h 16m 49s
True Declination
0° 00' 00"
Sunlit
Object was in full shadow at epoch
Visualization orbit readout
Latitude
Unknown
Longitude
Unknown
Altitude
Unknown
Speed
Unknown
Apparent Right ascension
Unknown
Apparent Declination
Unknown
Sunlit
N/A
Visualization observer readout
Local Sidereal Time
08:33:06
Azimuth
Unknown
Elevation
Unknown
Doppler factor
Unknown
Orbital elements
Apogee altitude
547.944 km
Perigee altitude
544.966 km
Semi-major axis
6,924.592 km
Eccentricity
0.00022
Inclination
97.3367°
RAAN
214.2047°
Arg. of periapsis
91.4074°
True anomaly
268.71537°
Mean anomaly
268.74°
Eccentric anomaly
268.72768°
Mean motion
3.76662 °/min
Orbital period
95.58 mins
BSTAR
0.000070913
Loading maneuver chart data...
Computing Atmospheric mass density...
Loading historical data...
Loading historical data...
Loading historical data...
Loading historical data...
Loading historical data...
Loading historical data...
Loading historical data...

Documentation

Showing up to 5 results
|